EW5545 Weather Reports


time (UTC)temp
F
wind
direction
speed
knots
gust
knots
rain 1hr
in
rain 24hr
in
rain mn
in
humidity
%
barometer
mb
20260906052008 77 247 0.0 1.7 0.00 0.00 0.00 43 1018.1
20260906051506 76 251 0.0 2.6 0.00 0.00 0.00 43 1018.1
20260906051006 76 243 0.0 0.9 0.00 0.00 0.00 44 1018.1
20260906050505 75 243 0.0 0.9 0.00 0.00 0.00 45 1018.1
20260906050008 75 243 0.0 0.9 0.00 0.00 0.00 46 1018.2
20260906045506 75 243 0.0 0.9 0.00 0.00 0.00 45 1018.2
20260906045006 75 243 0.0 0.9 0.00 0.00 0.00 45 1018.1
20260906044505 76 243 0.0 0.0 0.00 0.00 0.00 44 1018.1
20260906044006 76 243 0.0 0.0 0.00 0.00 0.00 44 1018.1
20260906043505 76 243 0.0 0.0 0.00 0.00 0.00 44 1018.0
20260906043005 76 243 0.0 0.9 0.00 0.00 0.00 44 1017.9
20260906042506 76 243 0.0 0.9 0.00 0.00 0.00 44 1018.0
20260906042006 75 243 0.0 0.9 0.00 0.00 0.00 45 1017.9
20260906041507 75 243 0.0 0.9 0.00 0.00 0.00 46 1017.8
20260906041007 75 243 0.0 0.9 0.00 0.00 0.00 46 1017.7
20260906040505 75 243 0.0 0.0 0.00 0.00 0.00 47 1017.7
20260906040005 75 243 0.0 0.9 0.00 0.00 0.00 46 1017.7
20260906035505 76 243 0.0 0.9 0.00 0.00 0.00 45 1017.6
20260906035006 76 243 0.0 0.9 0.00 0.00 0.00 45 1017.6
20260906034505 76 243 0.0 0.9 0.00 0.00 0.00 46 1017.6
20260906034009 76 243 0.0 0.9 0.00 0.00 0.00 46 1017.6
20260906033506 76 243 0.0 0.9 0.00 0.00 0.00 46 1017.6
20260906033006 76 243 0.0 0.9 0.00 0.00 0.00 46 1017.6
20260906032006 76 243 0.0 0.9 0.00 0.00 0.00 47 1017.6
20260906031506 76 243 0.0 0.9 0.00 0.00 0.00 47 1017.6
20260906031006 76 243 0.0 0.9 0.00 0.00 0.00 47 1017.5
20260906030506 76 243 0.0 0.9 0.00 0.00 0.00 47 1017.5
20260906030006 76 243 0.0 0.9 0.00 0.00 0.00 47 1017.5
20260906024505 76 243 0.0 1.7 0.00 0.00 0.00 48 1017.4
20260906023007 76 243 0.9 1.7 0.00 0.00 0.00 48 1017.5
20260906022505 77 243 0.9 1.7 0.00 0.00 0.00 48 1017.5
20260906022011 76 242 0.9 1.7 0.00 0.00 0.00 48 1017.5
20260906021507 76 242 0.0 0.9 0.00 0.00 0.00 48 1017.5
20260906020505 76 242 0.0 0.9 0.00 0.00 0.00 49 1017.4
20260906020006 76 242 0.0 1.7 0.00 0.00 0.00 49 1017.5
20260906015506 76 242 0.0 0.9 0.00 0.00 0.00 49 1017.5
20260906015006 77 242 0.0 0.9 0.00 0.00 0.00 49 1017.5
20260906014506 77 242 0.0 0.9 0.00 0.00 0.00 49 1017.5
20260906014006 77 242 0.0 0.9 0.00 0.00 0.00 48 1017.6
20260906013506 78 242 0.0 0.9 0.00 0.00 0.00 48 1017.6
20260906013006 78 242 0.0 0.9 0.00 0.00 0.00 49 1017.6
20260906012006 78 242 0.0 0.9 0.00 0.00 0.00 50 1017.5
20260906011007 78 242 0.0 0.9 0.00 0.00 0.00 50 1017.5
20260906010505 78 242 0.0 1.7 0.00 0.00 0.00 50 1017.5
20260906010007 78 242 0.0 0.9 0.00 0.00 0.00 51 1017.5
20260906005507 78 242 0.0 1.7 0.00 0.00 0.00 51 1017.5
20260906005007 77 241 0.9 1.7 0.00 0.00 0.00 52 1017.6
20260906004507 77 235 0.0 2.6 0.00 0.00 0.00 52 1017.6
20260906004005 78 249 0.9 2.6 0.00 0.00 0.00 52 1017.5
20260906003507 78 246 0.9 2.6 0.00 0.00 0.00 52 1017.5
20260906003006 78 247 0.0 1.7 0.00 0.00 0.00 53 1017.5
20260906002505 78 249 0.9 2.6 0.00 0.00 0.00 53 1017.5
20260906002005 78 237 0.0 1.7 0.00 0.00 0.00 53 1017.5
20260906001005 78 236 0.9 1.7 0.00 0.00 0.00 53 1017.6
20260906000505 78 235 0.9 2.6 0.00 0.00 0.00 53 1017.6
20260906000006 78 235 0.9 2.6 0.00 0.00 0.00 53 1017.6
20260905235507 78 234 0.0 1.7 0.00 0.00 0.00 52 1017.6
20260905235009 78 234 0.0 1.7 0.00 0.00 0.00 52 1017.7
20260905234011 79 234 0.0 1.7 0.00 0.00 0.00 51 1017.8
20260905233505 79 233 1.7 2.6 0.00 0.00 0.00 50 1017.8
20260905233006 79 241 0.0 1.7 0.00 0.00 0.00 49 1017.8
20260905232506 80 242 0.0 2.6 0.00 0.00 0.00 49 1017.8
20260905232006 80 261 0.9 2.6 0.00 0.00 0.00 49 1017.8
20260905231511 79 263 1.7 2.6 0.00 0.00 0.00 50 1017.8
20260905225505 77 200 0.0 0.9 0.00 0.00 0.00 51 1017.9
20260905225006 77 200 0.0 0.9 0.00 0.00 0.00 51 1017.9
20260905224506 78 200 0.0 0.9 0.00 0.00 0.00 51 1017.9
20260905224006 78 200 0.0 0.0 0.00 0.00 0.00 51 1017.9
20260905222006 79 201 0.0 2.6 0.00 0.00 0.00 51 1017.9
20260905221506 79 204 0.9 1.7 0.00 0.00 0.00 51 1017.8
20260905220506 79 204 0.9 1.7 0.00 0.00 0.00 49 1017.7
20260905220007 80 198 0.9 1.7 0.00 0.00 0.00 48 1017.7
20260905215506 80 199 0.9 2.6 0.00 0.00 0.00 47 1017.6
20260905215006 80 196 1.7 2.6 0.00 0.00 0.00 46 1017.6
20260905214505 80 202 0.9 2.6 0.00 0.00 0.00 45 1017.6
20260905214011 80 190 0.9 2.6 0.00 0.00 0.00 44 1017.6
20260905213506 80 195 1.7 4.3 0.00 0.00 0.00 43 1017.6
20260905213006 80 192 1.7 4.3 0.00 0.00 0.00 42 1017.7
20260905212506 80 200 1.7 2.6 0.00 0.00 0.00 40 1017.7
20260905212006 80 230 0.9 2.6 0.00 0.00 0.00 39 1017.8
20260905211006 80 191 1.7 2.6 0.00 0.00 0.00 36 1017.7
20260905210506 80 195 0.9 2.6 0.00 0.00 0.00 35 1017.7
20260905210006 80 197 1.7 4.3 0.00 0.00 0.00 35 1017.7
20260905205506 80 200 1.7 2.6 0.00 0.00 0.00 35 1017.7
20260905205007 81 205 2.6 5.2 0.00 0.00 0.00 35 1017.6
20260905204507 81 195 1.7 2.6 0.00 0.00 0.00 35 1017.6
20260905203506 81 197 2.6 4.3 0.00 0.00 0.00 35 1017.6
20260905203007 81 202 2.6 5.2 0.00 0.00 0.00 35 1017.7
20260905202017 80 204 2.6 5.2 0.00 0.00 0.00 37 1017.6
20260905200519 80 203 2.6 5.2 0.00 0.00 0.00 38 1017.7
20260905195513 80 202 2.6 5.2 0.00 0.00 0.00 39 1017.8
20260905195019 80 200 2.6 5.2 0.00 0.00 0.00 39 1017.8
20260905194521 80 207 2.6 6.1 0.00 0.00 0.00 40 1017.8
20260905193025 80 199 3.5 5.2 0.00 0.00 0.00 41 1017.7
20260905192021 80 207 2.6 5.2 0.00 0.00 0.00 40 1017.7
20260905191519 80 205 2.6 6.1 0.00 0.00 0.00 40 1017.7
20260905191020 81 206 2.6 6.1 0.00 0.00 0.00 40 1017.6
20260905190521 81 199 2.6 5.2 0.00 0.00 0.00 40 1017.6
20260905190021 81 198 2.6 4.3 0.00 0.00 0.00 40 1017.6
20260905185521 81 195 1.7 2.6 0.00 0.00 0.00 40 1017.6
20260905185020 82 207 1.7 4.3 0.00 0.00 0.00 39 1017.5
20260905184520 82 207 1.7 4.3 0.00 0.00 0.00 39 1017.5
20260905184014 82 211 1.7 4.3 0.00 0.00 0.00 39 1017.5
20260905183022 83 206 1.7 2.6 0.00 0.00 0.00 38 1017.5
20260905182522 83 204 1.7 2.6 0.00 0.00 0.00 38 1017.4
20260905182020 83 210 2.6 4.3 0.00 0.00 0.00 37 1017.4
20260905181519 83 203 1.7 5.2 0.00 0.00 0.00 37 1017.3
20260905181012 84 203 1.7 5.2 0.00 0.00 0.00 36 1017.2
20260905180021 84 203 1.7 2.6 0.00 0.00 0.00 35 1017.1
20260905175519 84 177 0.9 2.6 0.00 0.00 0.00 35 1017.1
20260905175020 85 190 1.7 2.6 0.00 0.00 0.00 34 1017.1
20260905174519 85 214 0.9 2.6 0.00 0.00 0.00 34 1017.0
20260905174020 86 190 0.9 2.6 0.00 0.00 0.00 33 1017.0
20260905173511 86 174 0.9 2.6 0.00 0.00 0.00 33 1016.9
20260905173020 87 201 0.9 2.6 0.00 0.00 0.00 32 1016.9
20260905172512 87 193 0.9 2.6 0.00 0.00 0.00 32 1016.9
20260905172021 87 188 1.7 2.6 0.00 0.00 0.00 31 1016.9
20260905171020 88 193 1.7 2.6 0.00 0.00 0.00 30 1016.9
20260905170519 89 180 2.6 6.1 0.00 0.00 0.00 29 1016.8
20260905170020 89 193 3.5 7.0 0.00 0.00 0.00 29 1016.7
20260905165519 90 190 3.5 10.4 0.00 0.00 0.00 28 1016.7
20260905164520 91 181 4.3 7.8 0.00 0.00 0.00 27 1016.6
20260905164019 92 178 2.6 5.2 0.00 0.00 0.00 26 1016.5
20260905163519 92 175 2.6 6.1 0.00 0.00 0.00 25 1016.5
20260905163021 93 180 2.6 7.8 0.00 0.00 0.00 25 1016.5
20260905162519 93 173 2.6 7.8 0.00 0.00 0.00 25 1016.4
20260905162019 93 177 1.7 4.3 0.00 0.00 0.00 28 1016.4
20260905161512 93 53 0.9 6.1 0.00 0.00 0.00 28 1016.5
20260905160519 93 38 1.7 5.2 0.00 0.00 0.00 28 1016.5
20260905160022 93 44 1.7 7.0 0.00 0.00 0.00 28 1016.5
20260905155517 93 52 3.5 10.4 0.00 0.00 0.00 27 1016.6
20260905155019 93 41 2.6 8.7 0.00 0.00 0.00 27 1016.6
20260905154519 94 50 4.3 8.7 0.00 0.00 0.00 26 1016.6
20260905153519 94 42 4.3 11.3 0.00 0.00 0.00 26 1016.6
20260905153021 94 36 2.6 7.8 0.00 0.00 0.00 26 1016.5
20260905152020 94 30 7.0 13.0 0.00 0.00 0.00 26 1016.4
20260905151019 94 43 7.8 14.8 0.00 0.00 0.00 26 1016.3
20260905150519 95 49 5.2 10.4 0.00 0.00 0.00 25 1016.3
20260905150018 95 50 5.2 10.4 0.00 0.00 0.00 25 1016.4
20260905145519 96 41 2.6 10.4 0.00 0.00 0.00 25 1016.3
20260905145020 96 36 4.3 7.8 0.00 0.00 0.00 25 1016.3
20260905144519 96 50 3.5 7.0 0.00 0.00 0.00 24 1016.4
20260905143518 96 45 5.2 8.7 0.00 0.00 0.00 24 1016.2
20260905143021 97 37 5.2 8.7 0.00 0.00 0.00 24 1016.2
20260905142510 97 47 5.2 8.7 0.00 0.00 0.00 24 1016.2
20260905142020 98 41 2.6 4.3 0.00 0.00 0.00 23 1016.4
20260905141519 99 44 1.7 2.6 0.00 0.00 0.00 21 1016.4
20260905140518 100 37 0.9 2.6 0.00 0.00 0.00 18 1016.3
20260905140020 99 175 1.7 5.2 0.00 0.00 0.00 18 1016.4
20260905134519 98 235 1.7 4.3 0.00 0.00 0.00 19 1016.5
20260905134020 99 236 0.9 5.2 0.00 0.00 0.00 19 1016.5
20260905133518 99 236 2.6 6.1 0.00 0.00 0.00 19 1016.6
20260905133020 99 174 1.7 5.2 0.00 0.00 0.00 19 1016.6
20260905132020 99 254 0.9 2.6 0.00 0.00 0.00 19 1016.7
20260905131519 98 33 1.7 4.3 0.00 0.00 0.00 19 1016.7
20260905130520 98 197 3.5 6.1 0.00 0.00 0.00 20 1016.8
20260905125518 98 238 0.9 2.6 0.00 0.00 0.00 19 1017.1
20260905124519 98 249 2.6 6.1 0.00 0.00 0.00 20 1017.2
20260905124021 98 233 5.2 7.8 0.00 0.00 0.00 20 1017.2
20260905123519 98 258 4.3 7.0 0.00 0.00 0.00 20 1017.3
20260905123021 98 241 1.7 4.3 0.00 0.00 0.00 20 1017.3
20260905122522 98 52 0.9 4.3 0.00 0.00 0.00 20 1017.3
20260905122019 98 45 0.9 4.3 0.00 0.00 0.00 20 1017.4
20260905120518 98 341 2.6 7.0 0.00 0.00 0.00 20 1017.5
20260905120020 98 247 1.7 5.2 0.00 0.00 0.00 20 1017.5
20260905115519 98 53 0.9 2.6 0.00 0.00 0.00 20 1017.5
20260905114520 97 213 2.6 6.1 0.00 0.00 0.00 21 1017.6
20260905114019 97 209 1.7 5.2 0.00 0.00 0.00 22 1017.7
20260905113518 97 222 1.7 6.1 0.00 0.00 0.00 21 1017.7
20260905113021 97 207 3.5 6.1 0.00 0.00 0.00 21 1017.7
20260905112513 98 83 2.6 6.1 0.00 0.00 0.00 22 1017.7
20260905112020 98 189 1.7 5.2 0.00 0.00 0.00 21 1017.8
20260905111518 98 154 1.7 4.3 0.00 0.00 0.00 21 1017.8
20260905111019 98 38 0.9 5.2 0.00 0.00 0.00 21 1017.8
20260905110518 99 225 0.0 1.7 0.00 0.00 0.00 21 1017.9
20260905110019 98 36 0.0 4.3 0.00 0.00 0.00 22 1017.9
20260905105518 98 59 1.7 4.3 0.00 0.00 0.00 22 1017.9
20260905104520 97 163 1.7 4.3 0.00 0.00 0.00 22 1017.9
20260905104020 97 88 0.9 4.3 0.00 0.00 0.00 22 1017.9
20260905103518 96 176 2.6 5.2 0.00 0.00 0.00 23 1017.9
20260905102518 95 6 0.9 2.6 0.00 0.00 0.00 23 1018.0
20260905102020 95 26 0.9 4.3 0.00 0.00 0.00 23 1018.1
20260905101519 95 354 0.9 5.2 0.00 0.00 0.00 23 1018.2
20260905101020 96 164 0.9 2.6 0.00 0.00 0.00 24 1018.2
20260905100021 96 222 1.7 4.3 0.00 0.00 0.00 23 1018.3
20260905095510 95 187 0.9 2.6 0.00 0.00 0.00 23 1018.4
20260905095020 95 49 1.7 2.6 0.00 0.00 0.00 24 1018.4
20260905094520 95 187 0.9 5.2 0.00 0.00 0.00 23 1018.5
20260905094020 94 219 0.9 4.3 0.00 0.00 0.00 24 1018.6
20260905093519 94 201 1.7 4.3 0.00 0.00 0.00 24 1018.6
20260905093021 95 216 2.6 4.3 0.00 0.00 0.00 23 1018.5
20260905092511 94 188 0.9 2.6 0.00 0.00 0.00 24 1018.5
20260905092012 94 163 0.9 5.2 0.00 0.00 0.00 24 1018.5
20260905091518 93 232 2.6 5.2 0.00 0.00 0.00 24 1018.6
20260905090511 93 189 0.9 2.6 0.00 0.00 0.00 25 1018.6
20260905090020 93 214 2.6 5.2 0.00 0.00 0.00 25 1018.6
20260905085518 93 242 0.0 2.6 0.00 0.00 0.00 25 1018.6
20260905085019 92 195 0.9 2.6 0.00 0.00 0.00 25 1018.6
20260905084517 92 250 0.9 2.6 0.00 0.00 0.00 25 1018.6
20260905084021 92 225 0.9 2.6 0.00 0.00 0.00 25 1018.6
20260905083518 91 156 1.7 4.3 0.00 0.00 0.00 26 1018.6
20260905083012 91 216 0.9 5.2 0.00 0.00 0.00 26 1018.6
20260905082019 91 114 1.7 2.6 0.00 0.00 0.00 26 1018.6
20260905081519 91 199 2.6 5.2 0.00 0.00 0.00 26 1018.6
20260905081019 91 217 0.9 2.6 0.00 0.00 0.00 27 1018.5
20260905080019 90 233 1.7 2.6 0.00 0.00 0.00 27 1018.5
20260905075511 90 229 1.7 2.6 0.00 0.00 0.00 28 1018.4
20260905075017 89 249 1.7 4.3 0.00 0.00 0.00 27 1018.3
20260905074020 89 228 2.6 4.3 0.00 0.00 0.00 28 1018.4
20260905073519 88 172 1.7 5.2 0.00 0.00 0.00 28 1018.4
20260905073021 88 239 0.9 2.6 0.00 0.00 0.00 28 1018.4
20260905072518 88 238 0.9 2.6 0.00 0.00 0.00 28 1018.4
20260905072020 88 212 0.9 2.6 0.00 0.00 0.00 29 1018.3
20260905071519 87 188 1.7 2.6 0.00 0.00 0.00 29 1018.3
20260905071019 87 224 0.9 2.6 0.00 0.00 0.00 30 1018.3
20260905070520 86 246 0.9 2.6 0.00 0.00 0.00 30 1018.2
20260905065516 85 244 0.9 2.6 0.00 0.00 0.00 32 1018.2
20260905065020 84 239 0.9 2.6 0.00 0.00 0.00 34 1018.2
20260905064518 83 237 0.0 1.7 0.00 0.00 0.00 36 1018.2
20260905064019 82 237 0.0 1.7 0.00 0.00 0.00 36 1018.1
20260905063513 81 237 0.0 1.7 0.00 0.00 0.00 39 1018.2
20260905063020 80 237 0.9 1.7 0.00 0.00 0.00 39 1018.1
20260905062520 80 237 0.0 0.9 0.00 0.00 0.00 40 1018.2
20260905062012 79 237 0.9 1.7 0.00 0.00 0.00 40 1018.2
20260905061519 78 237 0.0 0.9 0.00 0.00 0.00 41 1018.2
20260905061019 77 237 0.0 0.9 0.00 0.00 0.00 42 1018.2
20260905060518 77 237 0.0 0.9 0.00 0.00 0.00 44 1018.3
20260905055520 75 237 0.0 0.9 0.00 0.00 0.00 44 1018.3
20260905055019 74 237 0.9 0.9 0.00 0.00 0.00 44 1018.2
20260905054523 74 237 0.0 0.9 0.00 0.00 0.00 45 1018.2
20260905053513 73 237 0.0 0.9 0.00 0.00 0.00 45 1018.2
20260905053020 73 237 0.9 0.9 0.00 0.00 0.00 44 1018.2